GW0290 Weather Reports


Display with metric or nautical units.
time (UTC)temp
F
wind
direction
speed
MPH
gust
MPH
rain 1hr
in
rain 24hr
in
rain mn
in
humidity
%
barometer
mb
20260906120040 73 339 0.0 3.0 0.00 0.02 0.00 97 1013.5
20260906115520 73 319 0.0 3.0 0.00 0.02 0.00 96 1013.5
20260906115020 73 0 0.0 4.0 0.00 0.02 0.00 96 1013.5
20260906114544 73 0 0.0 4.0 0.00 0.02 0.00 96 1013.4
20260906114018 73 0 0.0 3.0 0.00 0.02 0.00 96 1013.2
20260906113518 73 0 0.0 2.0 0.00 0.02 0.00 96 1013.2
20260906113037 73 0 0.0 4.0 0.00 0.02 0.00 97 1013.2
20260906112518 73 0 0.0 4.0 0.00 0.02 0.00 96 1013.1
20260906112018 73 0 0.0 0.0 0.00 0.02 0.00 97 1013.1
20260906111543 73 0 0.0 0.0 0.00 0.02 0.00 96 1013.0
20260906111020 73 0 0.0 0.0 0.00 0.02 0.00 96 1012.9
20260906110518 73 0 0.0 0.0 0.00 0.02 0.00 96 1012.8
20260906110037 73 0 0.0 2.0 0.00 0.02 0.00 96 1012.7
20260906105521 72 0 0.0 2.0 0.00 0.02 0.00 96 1012.8
20260906105022 72 0 0.0 1.0 0.00 0.02 0.00 96 1012.7
20260906104538 72 0 0.0 1.0 0.00 0.02 0.00 96 1012.5
20260906104016 72 0 0.0 2.0 0.00 0.02 0.00 96 1012.5
20260906103516 72 0 0.0 3.0 0.00 0.02 0.00 96 1012.5
20260906103038 73 0 0.0 3.0 0.00 0.02 0.00 96 1012.5
20260906102521 73 100 0.0 2.0 0.00 0.02 0.00 96 1012.5
20260906102020 73 0 0.0 0.0 0.00 0.02 0.00 96 1012.5
20260906101535 73 0 0.0 0.0 0.00 0.02 0.00 96 1012.4
20260906101018 73 0 0.0 0.0 0.00 0.02 0.00 96 1012.3
20260906100521 73 0 0.0 0.0 0.00 0.02 0.00 96 1012.3
20260906100040 73 0 0.0 0.0 0.00 0.02 0.00 96 1012.3
20260906095525 73 0 0.0 0.0 0.00 0.02 0.00 96 1012.1
20260906095018 73 0 0.0 0.0 0.00 0.02 0.00 96 1012.0
20260906094535 73 0 0.0 2.0 0.00 0.02 0.00 96 1011.9
20260906094021 73 0 0.0 2.0 0.00 0.02 0.00 96 1011.9
20260906093517 73 253 0.0 0.0 0.00 0.02 0.00 96 1011.8
20260906093038 72 0 0.0 0.0 0.00 0.02 0.00 96 1011.8
20260906092518 72 0 0.0 0.0 0.00 0.02 0.00 96 1011.9
20260906092020 72 0 0.0 0.0 0.00 0.02 0.00 96 1011.7
20260906091536 72 0 0.0 0.0 0.00 0.02 0.00 96 1011.6
20260906091020 72 0 0.0 0.0 0.00 0.02 0.00 96 1011.6
20260906090521 72 0 0.0 0.0 0.00 0.02 0.00 96 1011.6
20260906090035 72 0 0.0 0.0 0.00 0.02 0.00 96 1011.5
20260906085519 72 0 0.0 0.0 0.00 0.02 0.00 96 1011.6
20260906085020 72 0 0.0 0.0 0.00 0.02 0.00 96 1011.5
20260906084538 71 0 0.0 0.0 0.00 0.02 0.00 96 1011.4
20260906084022 71 0 0.0 1.0 0.00 0.02 0.00 96 1011.5
20260906083516 71 0 0.0 1.0 0.00 0.02 0.00 96 1011.6
20260906083033 71 0 0.0 0.0 0.00 0.02 0.00 95 1011.5
20260906082518 71 0 0.0 0.0 0.00 0.02 0.00 95 1011.3
20260906082019 71 0 0.0 0.0 0.00 0.02 0.00 95 1011.3
20260906081535 71 0 0.0 0.0 0.00 0.02 0.00 95 1011.4
20260906081018 71 0 0.0 0.0 0.00 0.02 0.00 95 1011.3
20260906080520 71 0 0.0 0.0 0.00 0.02 0.00 95 1011.2
20260906080035 71 0 0.0 0.0 0.00 0.02 0.00 95 1011.1
20260906075517 71 0 0.0 0.0 0.00 0.02 0.00 95 1011.1
20260906075017 71 0 0.0 0.0 0.00 0.02 0.00 95 1011.0
20260906074537 71 0 0.0 0.0 0.00 0.02 0.00 95 1011.0
20260906074017 71 0 0.0 0.0 0.00 0.02 0.00 95 1010.8
20260906073517 71 0 0.0 0.0 0.00 0.02 0.00 95 1010.8
20260906073034 71 0 0.0 0.0 0.00 0.02 0.00 95 1010.9
20260906072520 71 0 0.0 0.0 0.00 0.02 0.00 95 1010.9
20260906072018 71 0 0.0 0.0 0.00 0.02 0.00 95 1010.9
20260906071537 71 0 0.0 0.0 0.00 0.02 0.00 95 1011.0
20260906071020 71 0 0.0 0.0 0.00 0.02 0.00 95 1011.0
20260906070520 71 0 0.0 0.0 0.00 0.02 0.00 95 1011.0
20260906070036 71 0 0.0 0.0 0.00 0.02 0.00 95 1011.0
20260906065524 71 0 0.0 0.0 0.00 0.02 0.00 95 1010.9
20260906065019 71 0 0.0 0.0 0.00 0.02 0.00 95 1010.9
20260906064534 71 0 0.0 0.0 0.00 0.02 0.00 95 1011.0
20260906064023 72 0 0.0 0.0 0.00 0.02 0.00 95 1011.2
20260906063523 72 0 0.0 0.0 0.00 0.02 0.00 95 1011.2
20260906063036 72 0 0.0 0.0 0.00 0.02 0.00 95 1011.2
20260906062520 72 0 0.0 0.0 0.00 0.02 0.00 95 1011.2
20260906062020 72 0 0.0 0.0 0.00 0.02 0.00 95 1011.2
20260906061538 72 0 0.0 0.0 0.00 0.02 0.00 95 1011.2
20260906061018 72 0 0.0 0.0 0.00 0.02 0.00 95 1011.2
20260906060521 72 0 0.0 0.0 0.00 0.02 0.00 95 1011.3
20260906060037 72 0 0.0 0.0 0.00 0.02 0.00 95 1011.4
20260906055517 72 0 0.0 0.0 0.00 0.02 0.00 94 1011.3
20260906055017 72 0 0.0 0.0 0.00 0.02 0.00 94 1011.5
20260906054552 72 0 0.0 1.0 0.00 0.02 0.00 94 1011.6
20260906054021 72 0 0.0 1.0 0.00 0.02 0.00 94 1011.7
20260906053521 72 0 0.0 1.0 0.00 0.02 0.00 94 1011.8
20260906053037 72 0 0.0 0.0 0.00 0.02 0.00 94 1011.7
20260906052520 72 0 0.0 0.0 0.00 0.02 0.00 94 1011.8
20260906052020 72 0 0.0 0.0 0.00 0.02 0.00 94 1011.8
20260906051554 72 0 0.0 0.0 0.00 0.02 0.00 94 1011.9
20260906051020 72 0 0.0 0.0 0.00 0.02 0.00 94 1012.1
20260906050520 73 0 0.0 0.0 0.00 0.02 0.00 94 1012.0
20260906050044 73 0 0.0 0.0 0.00 0.02 0.00 94 1012.0
20260906045518 73 0 0.0 0.0 0.00 0.02 0.00 94 1011.9
20260906045017 73 0 0.0 0.0 0.00 0.02 0.00 94 1011.9
20260906044536 73 0 0.0 0.0 0.00 0.02 0.00 94 1012.1
20260906044021 73 0 0.0 0.0 0.00 0.02 0.00 94 1012.2
20260906043520 73 0 0.0 0.0 0.00 0.02 0.00 94 1012.2
20260906043035 73 0 0.0 0.0 0.00 0.02 0.00 94 1012.1
20260906042520 73 0 0.0 0.0 0.00 0.02 0.00 94 1012.0
20260906042018 73 0 0.0 0.0 0.00 0.02 0.00 94 1012.2
20260906041536 73 0 0.0 0.0 0.00 0.02 0.00 94 1012.2
20260906041023 73 0 0.0 0.0 0.00 0.02 0.00 94 1012.3
20260906040517 73 0 0.0 0.0 0.00 0.02 0.00 94 1012.3
20260906040106 73 0 0.0 0.0 0.00 0.02 0.00 94 1012.2
20260906035519 73 0 0.0 0.0 0.00 0.02 0.02 94 1012.3
20260906035017 73 0 0.0 0.0 0.00 0.02 0.02 94 1012.4
20260906034536 73 0 0.0 0.0 0.00 0.02 0.02 94 1012.3
20260906034018 73 0 0.0 1.0 0.00 0.02 0.02 93 1012.2
20260906033518 73 0 0.0 1.0 0.00 0.02 0.02 93 1012.3
20260906033051 74 0 0.0 0.0 0.00 0.02 0.02 93 1012.3
20260906032523 74 0 0.0 0.0 0.00 0.02 0.02 93 1012.3
20260906032018 74 0 0.0 0.0 0.00 0.02 0.02 93 1012.3
20260906031535 74 0 0.0 0.0 0.00 0.02 0.02 93 1012.4
20260906031018 74 0 0.0 0.0 0.00 0.02 0.02 93 1012.3
20260906030520 74 0 0.0 0.0 0.00 0.02 0.02 93 1012.3
20260906030037 74 0 0.0 1.0 0.00 0.02 0.02 93 1012.3
20260906025516 74 0 0.0 1.0 0.00 0.02 0.02 93 1012.3
20260906025018 74 0 0.0 0.0 0.00 0.02 0.02 93 1012.2
20260906024535 74 0 0.0 0.0 0.00 0.02 0.02 93 1012.2
20260906024024 74 0 0.0 0.0 0.00 0.02 0.02 93 1012.3
20260906023523 74 0 0.0 0.0 0.00 0.02 0.02 93 1012.4
20260906023037 74 0 0.0 0.0 0.00 0.02 0.02 93 1012.4
20260906022520 74 0 0.0 0.0 0.00 0.02 0.02 93 1012.4
20260906022020 74 0 0.0 0.0 0.00 0.02 0.02 93 1012.3
20260906021538 74 0 0.0 0.0 0.00 0.02 0.02 93 1012.3
20260906021020 74 0 0.0 0.0 0.00 0.02 0.02 92 1012.2
20260906020520 74 0 0.0 0.0 0.00 0.02 0.02 93 1012.2
20260906020037 74 0 0.0 0.0 0.00 0.02 0.02 93 1012.2
20260906015519 75 0 0.0 0.0 0.00 0.02 0.02 92 1012.2
20260906015021 75 0 0.0 0.0 0.00 0.02 0.02 92 1012.3
20260906014537 75 0 0.0 0.0 0.00 0.02 0.02 92 1012.2
20260906014020 75 0 0.0 0.0 0.00 0.02 0.02 92 1012.0
20260906013520 75 0 0.0 0.0 0.00 0.02 0.02 92 1011.9
20260906013036 75 0 0.0 0.0 0.00 0.02 0.02 92 1012.1
20260906012520 75 0 0.0 0.0 0.00 0.02 0.02 92 1011.9
20260906012020 75 0 0.0 0.0 0.00 0.02 0.02 92 1012.0
20260906011538 75 0 0.0 0.0 0.00 0.02 0.02 92 1011.8
20260906011019 75 0 0.0 0.0 0.00 0.02 0.02 92 1011.8
20260906010520 75 0 0.0 0.0 0.00 0.02 0.02 92 1011.9
20260906010036 75 0 0.0 0.0 0.00 0.02 0.02 92 1011.9
20260906005520 75 0 0.0 0.0 0.00 0.02 0.02 92 1012.0
20260906005020 75 0 0.0 0.0 0.00 0.02 0.02 92 1011.9
20260906004537 75 0 0.0 0.0 0.00 0.02 0.02 91 1011.8
20260906004024 76 0 0.0 0.0 0.00 0.02 0.02 91 1011.9
20260906003518 76 0 0.0 0.0 0.00 0.02 0.02 91 1011.9
20260906003034 76 0 0.0 0.0 0.00 0.02 0.02 91 1011.9
20260906002520 76 0 0.0 0.0 0.00 0.02 0.02 91 1011.8
20260906002021 76 0 0.0 0.0 0.00 0.02 0.02 91 1011.7
20260906001539 76 0 0.0 0.0 0.00 0.02 0.02 91 1011.8
20260906001018 76 0 0.0 0.0 0.00 0.02 0.02 91 1011.7
20260906000518 76 0 0.0 0.0 0.00 0.02 0.02 91 1011.5
20260906000038 76 0 0.0 0.0 0.00 0.02 0.02 91 1011.3
20260905235520 77 0 0.0 0.0 0.00 0.02 0.02 91 1011.3
20260905235018 77 0 0.0 1.0 0.00 0.02 0.02 91 1011.2
20260905234538 77 0 0.0 1.0 0.00 0.02 0.02 91 1011.2
20260905234018 77 0 0.0 1.0 0.00 0.02 0.02 91 1011.3
20260905233523 77 0 0.0 1.0 0.00 0.02 0.02 91 1011.2
20260905233035 77 0 0.0 1.0 0.00 0.02 0.02 91 1011.1
20260905232518 77 0 0.0 1.0 0.00 0.02 0.02 91 1010.9
20260905232020 77 0 0.0 1.0 0.00 0.02 0.02 91 1010.9
20260905231538 77 0 0.0 1.0 0.00 0.02 0.02 91 1011.0
20260905231021 77 0 0.0 1.0 0.00 0.02 0.02 91 1010.9
20260905230521 77 248 0.0 1.0 0.00 0.02 0.02 91 1010.5
20260905230037 77 0 0.0 1.0 0.00 0.02 0.02 91 1010.3
20260905225520 77 0 0.0 1.0 0.00 0.02 0.02 91 1010.3
20260905225021 77 0 0.0 1.0 0.00 0.02 0.02 90 1010.0
20260905224605 77 0 0.0 1.0 0.00 0.02 0.02 90 1009.9
20260905224018 77 0 0.0 1.0 0.00 0.02 0.02 90 1009.8
20260905223515 77 0 0.0 1.0 0.00 0.02 0.02 89 1009.9
20260905223042 77 0 0.0 1.0 0.00 0.02 0.02 89 1010.2
20260905222521 77 221 0.0 1.0 0.00 0.02 0.02 89 1010.2
20260905222020 77 0 0.0 1.0 0.00 0.02 0.02 88 1010.4
20260905221539 77 0 0.0 1.0 0.00 0.02 0.02 88 1010.6
20260905221021 77 0 0.0 1.0 0.01 0.02 0.02 88 1010.9
20260905220520 77 0 0.0 0.0 0.01 0.02 0.02 87 1010.8
20260905220035 77 0 0.0 0.0 0.01 0.02 0.02 87 1010.9
20260905215517 77 0 0.0 2.0 0.02 0.02 0.02 87 1010.8
20260905215020 77 0 0.0 2.0 0.02 0.02 0.02 87 1010.7
20260905214543 78 0 0.0 2.0 0.02 0.02 0.02 86 1010.8
20260905214018 78 0 0.0 1.0 0.02 0.02 0.02 86 1010.7
20260905213521 78 0 0.0 1.0 0.02 0.02 0.02 85 1010.3
20260905213035 78 0 0.0 0.0 0.02 0.02 0.02 84 1010.1
20260905212526 79 0 0.0 0.0 0.02 0.02 0.02 84 1010.1
20260905212020 79 0 0.0 0.0 0.02 0.02 0.02 83 1010.1
20260905211544 79 0 0.0 0.0 0.02 0.02 0.02 82 1010.3
20260905211020 80 0 0.0 1.0 0.01 0.01 0.01 81 1010.3
20260905210519 80 0 0.0 1.0 0.01 0.01 0.01 80 1010.5
20260905210043 81 0 0.0 1.0 0.01 0.01 0.01 78 1010.5
20260905205520 81 0 0.0 3.0 0.00 0.00 0.00 77 1010.5
20260905205021 81 0 0.0 3.0 0.00 0.00 0.00 75 1010.6
20260905204540 81 0 0.0 3.0 0.00 0.00 0.00 74 1010.3
20260905204020 81 276 0.0 6.0 0.00 0.00 0.00 74 1010.2
20260905203516 82 0 0.0 6.0 0.00 0.00 0.00 73 1010.3
20260905203037 82 0 0.0 7.0 0.00 0.00 0.00 72 1010.4
20260905202518 83 303 1.0 7.0 0.00 0.00 0.00 71 1010.4
20260905202019 83 67 1.0 6.0 0.00 0.00 0.00 70 1010.1
20260905201534 83 76 1.0 9.0 0.00 0.00 0.00 69 1010.3
20260905201020 84 14 1.0 9.0 0.00 0.00 0.00 68 1010.6
20260905200526 84 360 2.0 10.0 0.00 0.00 0.00 68 1010.7
20260905200035 85 38 2.0 11.0 0.00 0.00 0.00 67 1010.2
20260905195521 86 351 2.0 11.0 0.00 0.00 0.00 66 1010.5
20260905195023 87 171 3.0 18.0 0.00 0.00 0.00 63 1010.5
20260905194541 90 28 4.0 18.0 0.00 0.00 0.00 59 1010.5
20260905194019 93 284 3.0 10.0 0.00 0.00 0.00 55 1010.8
20260905193516 96 31 0.0 4.0 0.00 0.00 0.00 51 1010.4
20260905193035 97 210 0.0 2.0 0.00 0.00 0.00 50 1010.0
20260905192521 97 0 0.0 2.0 0.00 0.00 0.00 49 1009.8
20260905192021 97 0 0.0 1.0 0.00 0.00 0.00 48 1009.6
20260905191537 98 0 0.0 2.0 0.00 0.00 0.00 46 1009.7
20260905191018 98 0 0.0 2.0 0.00 0.00 0.00 45 1009.6
20260905190520 99 51 0.0 1.0 0.00 0.00 0.00 45 1009.6
20260905190034 99 355 0.0 3.0 0.00 0.00 0.00 45 1009.7
20260905185518 99 0 1.0 3.0 0.00 0.00 0.00 44 1009.7
20260905185019 99 0 0.0 4.0 0.00 0.00 0.00 45 1009.6
20260905184547 99 125 0.0 4.0 0.00 0.00 0.00 43 1009.7
20260905184016 100 173 1.0 4.0 0.00 0.00 0.00 42 1009.8
20260905183516 99 0 1.0 3.0 0.00 0.00 0.00 44 1009.7
20260905183037 99 169 0.0 3.0 0.00 0.00 0.00 44 1009.9
20260905182520 99 0 0.0 3.0 0.00 0.00 0.00 44 1010.0
20260905182020 100 0 1.0 5.0 0.00 0.00 0.00 44 1010.3
20260905181536 99 0 0.0 5.0 0.00 0.00 0.00 45 1010.3
20260905181017 99 0 1.0 5.0 0.00 0.00 0.00 45 1010.4
20260905180521 99 0 0.0 4.0 0.00 0.00 0.00 46 1010.6
20260905180042 98 296 1.0 4.0 0.00 0.00 0.00 48 1010.8
20260905175520 98 0 0.0 4.0 0.00 0.00 0.00 48 1010.9
20260905175016 98 0 0.0 4.0 0.00 0.00 0.00 49 1011.1
20260905174538 98 274 1.0 4.0 0.00 0.00 0.00 48 1011.2
20260905174016 99 263 1.0 3.0 0.00 0.00 0.00 47 1011.3
20260905173516 100 0 0.0 4.0 0.00 0.00 0.00 48 1011.3
20260905173054 99 330 0.0 7.0 0.00 0.00 0.00 50 1011.3
20260905172518 98 0 1.0 7.0 0.00 0.00 0.00 51 1011.5
20260905172020 98 162 1.0 7.0 0.00 0.00 0.00 51 1011.6
20260905171535 97 0 1.0 4.0 0.00 0.00 0.00 52 1011.7
20260905171020 98 341 0.0 4.0 0.00 0.00 0.00 52 1011.8
20260905170520 97 19 0.0 4.0 0.00 0.00 0.00 53 1011.9
20260905170040 97 184 0.0 4.0 0.00 0.00 0.00 53 1012.0
20260905165519 96 0 0.0 3.0 0.00 0.00 0.00 53 1012.1
20260905165018 96 293 0.0 4.0 0.00 0.00 0.00 54 1012.1
20260905164535 95 0 1.0 4.0 0.00 0.00 0.00 54 1012.1
20260905164017 95 183 1.0 4.0 0.00 0.00 0.00 55 1012.2
20260905163523 96 67 0.0 5.0 0.00 0.00 0.00 55 1012.1
20260905163035 94 0 0.0 5.0 0.00 0.00 0.00 57 1012.2
20260905162518 94 103 0.0 3.0 0.00 0.00 0.00 58 1012.2
20260905162019 94 0 0.0 3.0 0.00 0.00 0.00 58 1012.4
20260905161550 94 277 0.0 4.0 0.00 0.00 0.00 60 1012.3
20260905161020 92 22 1.0 4.0 0.00 0.00 0.00 60 1012.3
20260905160518 93 148 0.0 3.0 0.00 0.00 0.00 59 1012.4
20260905160035 93 0 0.0 5.0 0.00 0.00 0.00 60 1012.5
20260905155522 93 0 1.0 5.0 0.00 0.00 0.00 60 1012.7
20260905155016 93 217 0.0 3.0 0.00 0.00 0.00 61 1012.7
20260905154536 93 136 0.0 2.0 0.00 0.00 0.00 62 1012.8
20260905154022 93 0 0.0 3.0 0.00 0.00 0.00 63 1012.9
20260905153518 92 0 0.0 3.0 0.00 0.00 0.00 62 1012.8
20260905153037 92 323 0.0 4.0 0.00 0.00 0.00 63 1012.9
20260905152522 92 26 0.0 4.0 0.00 0.00 0.00 63 1013.0
20260905152018 92 53 0.0 5.0 0.00 0.00 0.00 63 1012.9
20260905151536 91 146 0.0 5.0 0.00 0.00 0.00 66 1013.0
20260905151018 91 256 0.0 3.0 0.00 0.00 0.00 67 1013.0
20260905150519 91 0 0.0 4.0 0.00 0.00 0.00 66 1013.1
20260905150038 90 0 0.0 4.0 0.00 0.00 0.00 67 1013.0
20260905145520 90 0 0.0 4.0 0.00 0.00 0.00 69 1013.0
20260905145022 90 0 1.0 4.0 0.00 0.00 0.00 68 1013.1
20260905144536 90 0 0.0 2.0 0.00 0.00 0.00 69 1013.1
20260905144020 89 0 0.0 3.0 0.00 0.00 0.00 70 1013.1
20260905143518 88 0 0.0 3.0 0.00 0.00 0.00 71 1013.0
20260905143037 89 210 0.0 2.0 0.00 0.00 0.00 71 1013.1
20260905142520 88 0 0.0 2.0 0.00 0.00 0.00 72 1013.1
20260905142020 88 0 0.0 1.0 0.00 0.00 0.00 73 1013.1
20260905141538 87 0 0.0 2.0 0.00 0.00 0.00 73 1013.0
20260905141024 87 0 0.0 3.0 0.00 0.00 0.00 74 1013.0
20260905140520 87 0 0.0 3.0 0.00 0.00 0.00 75 1013.0
20260905140038 86 243 0.0 3.0 0.00 0.00 0.00 76 1012.9
20260905135519 86 0 0.0 3.0 0.00 0.00 0.00 76 1012.9
20260905135019 85 223 0.0 3.0 0.00 0.00 0.00 77 1012.9
20260905134536 85 0 0.0 3.0 0.00 0.00 0.00 78 1012.8
20260905134020 84 350 0.0 3.0 0.00 0.00 0.00 78 1012.8
20260905133519 84 171 0.0 3.0 0.00 0.00 0.00 79 1012.9
20260905133039 84 165 0.0 2.0 0.00 0.00 0.00 79 1013.0
20260905132517 84 0 0.0 4.0 0.00 0.00 0.00 80 1012.9
20260905132020 84 0 0.0 5.0 0.00 0.00 0.00 81 1013.0
20260905131536 83 0 1.0 5.0 0.00 0.00 0.00 83 1012.9
20260905131021 82 0 0.0 4.0 0.00 0.00 0.00 85 1012.9
20260905130520 81 0 0.0 4.0 0.00 0.00 0.00 88 1012.8
20260905130037 80 156 0.0 1.0 0.00 0.00 0.00 90 1013.1
20260905125521 79 0 0.0 1.0 0.00 0.00 0.00 92 1013.1
20260905125020 78 0 0.0 1.0 0.00 0.00 0.00 93 1013.2
20260905124538 78 0 0.0 1.0 0.00 0.00 0.00 93 1013.2
20260905124017 77 0 0.0 1.0 0.00 0.00 0.00 94 1013.3
20260905123520 76 0 0.0 1.0 0.00 0.00 0.00 94 1013.2
20260905123035 76 0 0.0 2.0 0.00 0.00 0.00 94 1013.3
20260905122517 76 0 0.0 2.0 0.00 0.00 0.00 94 1013.3
20260905122016 75 0 0.0 2.0 0.00 0.00 0.00 94 1013.2
20260905121537 75 0 0.0 3.0 0.00 0.00 0.00 93 1013.1
20260905121018 75 0 0.0 5.0 0.00 0.00 0.00 94 1013.1
20260905120522 75 233 0.0 6.0 0.00 0.00 0.00 93 1013.0